Location: Erdweis
(48.5167°N, 15.3500°E)
Time: 05:53:47
(UTC+00:00)

Cosmos 1844 Rocket - Pass Details

Date: 18 September 2020
Orbit: 823 x 846 km, 71.0° (Epoch: 23 October)

Event Time Altitude Azimuth Distance (km) Brightness Sun altitude
Rises 17:57:10 0° 163° (SSE) 3,345 5.5 -9.5°
Reaches altitude 10° 18:00:08 10° 147° (SSE) 2,419 4.7 -10.0°
Maximum altitude 18:04:08 21° 101° (E) 1,788 3.8 -10.6°
Drops below altitude 10° 18:08:10 10° 54° (NE) 2,439 4.7 -11.3°
Sets 18:11:10 0° 39° (NE) 3,381 5.6 -11.7°
